This demonstration page uses our WeatherBlox Daily Observations layout. Learn more.

Left ArrowRight Arrow

39.01783, -85.05884

Hourly Observations for December 18, 2016

Temp ( °F °C ) Dew Point ( °F °C ) Humidity (%) Winds ( mph kmh ) Pressure ( in mb ) Visibility ( mi km ) Precip ( " mm )
12:52 am 00:52 Cloudy with Light Rain 34 1.1 33 0.6 97 97 NW 17 28 29.72 1006 6 10 0.14 3.56
1:52 am 01:52 Cloudy with Light Rain 33 0.6 32 undefined 96 96 NW 16 26 29.73 1007 10 16 0.01 0.25
2:38 am 02:38 Cloudy with Light Freezing Drizzle 32 undefined 30 -1 93 93 NNW 7 11 29.80 1009 6 10 N/A
2:52 am 02:52 Cloudy with Light Freezing Drizzle 32 undefined 31 -0.6 96 96 WNW 9 15 29.78 1009 10 16 0.03 0.76
3:52 am 03:52 Cloudy 31 -0.6 29 -1.7 92 92 WNW 15 24 29.82 1010 10 16 N/A
4:52 am 04:52 Cloudy with Mist and Fog 29 -1.7 27 -2.8 92 92 W 24 39 29.90 1013 6 10 N/A
5:24 am 05:24 Cloudy 27 -3 23 -5 86 86 NW 22 35 30.03 1017 8 13 N/A
5:43 am 05:43 Cloudy with Mist and Fog 26 -3.3 23 -5 88 88 W 21 33 30.06 1018 6 10 N/A
5:52 am 05:52 Cloudy 25 -3.9 22 -5.6 88 88 WNW 20 31 30.01 1016 7 11 N/A
6:17 am 06:17 Cloudy 25 -3.9 21 -6.1 85 85 WNW 16 26 30.09 1019 10 16 N/A
6:52 am 06:52 Cloudy 24 -4.4 20 -6.7 84 84 WNW 17 28 30.06 1018 10 16 N/A
7:52 am 07:52 Cloudy 24 -4.4 20 -6.7 84 84 WNW 18 30 30.16 1021 10 16 N/A
8:52 am 08:52 Cloudy 24 -4.4 21 -6.1 88 88 WNW 16 26 30.22 1023 7 11 N/A
9:52 am 09:52 Cloudy 24 -4.4 19 -7.2 81 81 WNW 14 22 30.27 1025 9 14 N/A
10:52 am 10:52 Cloudy 24 -4.4 19 -7.2 81 81 WNW 15 24 30.34 1027 10 16 N/A
10:59 am 10:59 Cloudy 24 -4.4 18 -7.8 77 77 WNW 14 22 30.42 1030 9 14 N/A
11:52 am 11:52 Cloudy 24 -4.4 18 -7.8 77 77 NW 14 22 30.37 1029 10 16 N/A
12:52 pm 12:52 Cloudy with Haze 24 -4.4 19 -7.2 81 81 WNW 12 19 30.40 1029 5 8 N/A
1:52 pm 13:52 Cloudy with Haze 23 -5 18 -7.8 81 81 WNW 12 19 30.42 1030 6 10 N/A
2:52 pm 14:52 Cloudy 23 -5 17 -8.3 78 78 WNW 12 19 30.44 1031 8 13 N/A
3:52 pm 15:52 Cloudy with Haze 22 -5.6 17 -8.3 82 82 WNW 12 19 30.46 1032 6 10 N/A
4:52 pm 16:52 Cloudy 22 -5.6 16 -8.9 78 78 WNW 10 17 30.49 1033 10 16 N/A
5:52 pm 17:52 Cloudy 21 -6.1 16 -8.9 81 81 NW 10 17 30.53 1034 10 16 N/A
6:31 pm 18:31 Cloudy 21 -6.1 16 -8.9 81 81 WNW 9 15 30.59 1036 10 16 N/A
6:52 pm 18:52 Cloudy 21 -6.1 16 -8.9 81 81 NW 10 17 30.56 1035 9 14 N/A
7:52 pm 19:52 Cloudy 20 -6.7 15 -9.4 81 81 NW 12 19 30.58 1036 9 14 N/A
8:52 pm 20:52 Cloudy 20 -6.7 14 -10 78 78 NNW 7 11 30.61 1037 10 16 N/A
9:52 pm 21:52 Cloudy 20 -6.7 14 -10 78 78 NW 10 17 30.64 1038 10 16 N/A
10:52 pm 22:52 Cloudy with Light Snow 19 -7.2 13 -10.6 77 77 NNW 7 11 30.65 1038 9 14 N/A
11:30 pm 23:30 Cloudy with Light Snow 19 -7 12 -11 73 73 NW 9 15 30.68 1039 4 6 N/A
11:45 pm 23:45 Cloudy with Light Snow 18 -7.8 13 -10.6 81 81 NW 10 17 30.68 1039 9 14 N/A
11:52 pm 23:52 Cloudy with Light Snow 18 -7.8 12 -11.1 77 77 NW 10 17 30.67 1039 9 14 N/A

Powered by AerisWeather